sat.trackr.live / text

‹ back to catalog

KUIPER-00266

NORAD 67789 · 2026-030AB

PAYLOAD ACTIVE UNKNOWN

§ Identity

Operator
Country
US
Launch date
2026-02-12
Launch site
FRGUI
Launch vehicle
Mass (kg)
RCS (m²)

External: N2YO · Heavens-Above · Gunter

§ Orbital elements

Epoch: 2026-09-20T21:39:08.254368Z

Period
97.30 min
Inclination
51.8992°
Eccentricity
0.0000826
Mean motion
14.79939985 rev/d
Perigee alt
628.9 km
Apogee alt
630.1 km
Semi-major
7,007.7 km
B*
2.8600e-4
RAAN
49.8933°
Arg perigee
121.8091°
Mean anomaly
238.2952°
Rev number
3,436

§ Raw data

KUIPER-002661 67789U 26030AB  26263.90217887  .00001960  00000+0  28600-3 0  99932 67789  51.8992  49.8933 0000826 121.8091 238.2952 14.79939985 34368

JSON: /api/v1/satellites/67789 · /tle

For live sub-satellite position, see the globe view (requires WebGL).

§ Visibility from observer

Set your observer location to see the next 7 days of passes ≥ 10°. The values pass through the URL so the page stays shareable.

No JS? Fill the form by hand. The geolocation button needs JavaScript.